GFSMA_sfc_rhum_072.txt.gz
RH
88 84 86 91 87 86 81 84 76 70 66 64 65 66 73 75 77 79 77 80 76 69 65 65 66 66 67 66 65 65 64 62 62 62 62 62 61 61 58 60 60 61 58
84 85 87 93 89 82 78 71 75 67 65 66 64 67 71 72 75 78 80 78 81 75 69 64 65 66 66 67 66 64 62 61 60 60 61 61 60 60 58 57 56 57 54
89 89 86 85 82 77 77 81 82 68 66 69 64 68 71 72 75 77 80 80 79 81 78 72 68 66 66 67 67 64 63 62 60 60 60 61 60 59 57 57 55 55 54
80 83 79 78 70 72 66 72 83 76 71 76 72 70 72 73 73 76 79 83 89 75 80 80 75 72 68 66 66 66 66 64 63 61 60 60 60 59 58 57 55 55 55
77 75 78 79 72 67 68 73 86 78 78 79 72 69 73 80 77 70 78 83 90 87 89 83 83 81 77 71 68 67 66 67 67 65 64 61 61 61 60 59 57 56 55
72 76 74 84 80 66 73 75 82 79 73 76 57 71 74 78 82 80 78 76 83 83 85 87 83 82 84 78 74 69 68 68 67 67 68 67 65 63 62 62 60 58 57
78 71 68 86 74 80 76 70 76 67 73 76 76 82 81 82 79 80 79 80 81 81 83 82 87 84 81 84 81 73 70 69 67 68 67 69 70 68 66 65 64 62 60
81 72 67 82 77 80 89 81 76 74 71 70 66 73 81 72 76 78 79 78 81 78 81 81 81 81 81 81 82 82 76 71 72 70 69 73 74 75 71 70 68 67 65
83 82 74 77 83 80 85 84 76 67 74 76 62 70 74 75 71 70 77 81 83 85 80 83 83 81 82 81 82 83 86 84 80 77 76 75 75 76 77 75 73 71 70
89 83 84 80 83 85 89 89 81 69 71 65 74 65 66 70 79 77 73 76 79 81 85 85 82 83 82 84 84 86 89 91 87 84 81 78 78 77 78 79 80 78 74
90 86 86 83 87 90 92 88 88 80 79 83 73 78 75 84 89 89 87 80 86 79 77 78 78 85 83 82 83 86 92 92 91 87 84 83 80 80 80 80 80 81 80
89 82 84 85 88 87 91 90 89 85 83 79 76 77 81 85 91 94 94 92 81 78 78 75 80 72 72 78 78 81 88 93 92 91 88 85 83 81 80 83 83 82 81
85 74 80 89 86 84 87 81 84 87 89 89 87 89 92 86 88 89 91 91 90 85 89 84 74 70 69 77 71 78 80 87 92 92 91 90 87 84 82 81 82 85 84
78 74 79 81 86 80 78 89 87 89 94 95 93 95 95 94 94 92 88 92 94 95 94 84 84 72 70 68 69 78 68 82 85 88 91 90 89 88 87 84 82 83 85
74 80 80 83 83 83 82 87 93 90 91 90 91 94 94 92 95 94 94 92 86 88 86 92 93 86 69 66 70 68 66 71 83 82 82 84 86 86 87 87 86 85 86
81 76 79 82 87 84 80 82 83 86 87 88 83 84 84 81 84 84 86 88 89 86 84 78 87 86 86 80 78 77 73 82 87 87 87 86 83 83 86 89 88 88 91
80 75 75 74 80 83 82 80 77 79 85 82 81 80 78 72 75 80 83 80 79 82 88 71 72 90 92 91 86 88 84 83 80 89 89 88 87 88 89 92 95 96 94
73 76 73 74 73 76 77 81 81 75 81 80 77 79 81 75 81 78 81 85 85 82 87 84 74 80 93 87 85 88 89 84 84 86 89 91 90 91 94 96 95 95 96
73 71 71 74 75 76 78 78 80 78 77 78 76 77 77 78 81 81 81 84 85 83 84 89 83 76 80 96 93 95 92 95 90 87 91 92 93 94 97 96 97 98 97
78 77 75 73 74 73 72 74 78 81 78 75 76 79 78 78 79 79 82 84 84 86 86 90 89 85 85 87 91 87 91 95 92 88 93 94 95 97 97 98 98 97 96
76 76 77 78 76 74 70 73 73 78 80 80 78 78 79 79 81 78 75 78 81 86 88 88 88 87 87 94 98 88 96 89 93 94 99 99 98 98 98 98 96 93 93
82 81 79 79 82 76 85 88 81 75 76 79 82 80 79 89 88 88 89 85 78 84 88 88 85 87 84 83 88 93 92 100 98 99 99 99 97 99 98 95 94 94 93
86 86 83 79 80 80 91 91 90 74 74 77 78 78 79 80 90 82 89 92 93 98 99 86 83 83 84 82 87 99 100 99 100 99 97 100 98 99 94 91 94 93 93
90 88 87 85 82 79 94 94 92 82 78 76 79 80 82 82 80 82 83 85 99 99 98 99 99 98 99 99 99 98 99 100 99 99 98 98 100 99 98 97 94 93 90
88 87 87 91 89 87 99 100 98 87 84 84 83 96 97 94 95 98 90 99 99 99 98 97 97 96 97 97 97 96 99 97 99 98 99 98 99 100 100 99 95 79 77
94 94 92 95 96 96 96 97 98 98 93 100 99 99 99 99 98 100 99 98 98 98 97 97 96 95 94 95 94 96 99 97 97 96 95 96 95 93 96 86 93 80 80

GFSMA_sfc_rhum_075.txt.gz
RH
96 95 89 91 89 87 88 82 72 65 68 69 75 74 78 79 85 86 88 79 76 67 66 65 66 66 67 67 68 68 68 67 66 66 66 66 66 64 64 65 65 63 62
92 88 86 90 89 86 84 77 71 68 69 69 76 75 74 80 87 91 91 80 80 76 70 65 65 66 67 67 68 67 66 65 64 64 64 64 63 61 61 61 62 60 58
94 89 84 92 91 87 82 82 73 70 72 71 74 73 74 77 84 88 92 90 82 82 78 72 68 66 67 67 67 66 64 64 63 63 64 63 62 61 60 59 59 58 57
87 89 87 91 88 85 81 75 72 71 77 73 76 76 74 75 79 86 89 90 92 82 82 80 75 72 68 68 68 66 64 63 62 62 63 63 63 61 60 59 59 58 57
89 90 88 85 82 78 77 76 87 70 80 82 81 83 86 81 78 75 87 90 92 89 91 85 83 81 76 70 69 68 66 66 64 63 62 63 63 62 61 60 59 59 58
88 84 81 85 82 71 86 86 82 81 81 80 69 82 90 90 81 82 81 82 92 89 90 89 86 82 84 78 71 69 68 68 68 67 66 64 63 63 64 62 61 59 59
87 76 78 82 73 71 75 82 85 76 89 86 89 92 93 94 91 89 87 85 86 87 90 86 88 90 83 85 80 72 68 67 67 67 69 70 69 67 66 65 65 63 62
90 74 75 74 68 67 85 87 81 81 76 77 81 80 93 83 88 87 88 83 84 80 82 84 86 86 88 86 86 82 75 72 72 72 70 74 75 74 72 69 68 67 66
90 83 74 71 72 69 80 80 78 70 75 85 72 76 84 89 90 86 88 87 86 89 81 81 82 82 87 86 86 85 88 86 82 78 79 80 78 78 78 78 74 72 70
90 84 84 84 81 81 84 85 79 71 71 71 78 69 69 73 89 84 81 84 83 86 84 86 82 82 82 85 85 86 88 91 88 84 83 81 81 79 79 79 80 80 77
95 94 89 94 92 94 88 88 89 82 82 79 79 82 81 88 83 87 85 77 84 82 81 86 85 87 84 83 85 85 91 91 91 88 85 83 83 83 81 80 80 81 81
98 97 96 92 92 97 95 92 92 89 86 82 71 76 80 87 90 92 89 84 75 78 75 80 85 84 84 85 83 86 92 94 92 90 88 86 84 82 83 83 83 82 82
95 96 95 96 91 88 94 96 94 95 94 94 86 83 76 82 88 88 88 89 88 84 87 82 73 72 72 82 85 89 89 92 93 92 90 89 89 87 86 83 83 83 85
86 86 89 91 89 90 93 95 96 95 95 97 93 87 90 81 90 89 88 89 93 96 95 81 85 73 69 68 72 80 75 88 89 90 90 90 90 90 89 87 85 83 82
82 81 84 87 88 86 90 93 93 91 91 91 90 86 81 89 94 92 94 92 85 97 88 85 91 83 73 69 71 70 69 71 84 86 86 88 89 89 88 88 88 87 86
83 89 85 84 90 87 86 87 86 83 88 87 83 81 84 87 91 93 92 95 96 93 91 74 74 82 84 73 73 74 69 76 80 83 84 84 85 85 85 87 88 88 88
93 91 83 81 82 85 81 81 78 79 87 83 82 85 83 78 82 85 86 83 86 85 92 76 68 75 88 87 83 85 79 76 72 84 86 85 87 87 87 87 88 89 90
92 87 88 81 79 81 80 81 81 77 84 80 80 84 84 79 83 79 82 82 81 80 86 88 78 79 93 86 82 83 83 83 81 81 89 92 91 91 91 91 92 93 93
84 83 83 84 83 80 82 85 80 78 77 79 79 82 82 82 84 81 80 83 84 83 86 88 84 76 78 91 93 91 87 86 86 84 90 92 91 91 91 92 94 95 97
81 77 76 76 78 79 78 77 78 82 80 79 80 80 78 79 79 77 80 82 82 84 86 89 87 85 84 82 93 88 87 91 92 88 94 93 93 94 95 96 98 98 98
83 81 79 78 76 74 73 77 77 80 82 84 83 83 82 82 84 81 74 78 83 88 88 89 88 86 86 87 90 84 88 87 86 92 93 98 97 99 99 99 98 98 98
86 85 85 84 83 78 84 89 83 75 74 79 83 82 81 89 89 91 91 86 78 85 91 88 85 88 84 82 82 88 93 91 92 99 99 100 99 99 98 98 98 97 95
88 89 88 85 86 84 95 93 93 79 76 76 77 79 79 77 88 82 93 94 94 91 88 79 86 86 87 85 85 88 90 93 91 99 98 99 99 99 97 95 96 96 94
94 93 90 88 88 85 99 98 98 87 83 80 78 79 82 83 82 86 89 90 92 93 97 97 94 94 98 98 99 99 99 100 100 98 98 99 100 99 98 98 95 94 94
94 92 95 94 95 94 96 95 97 98 91 88 85 93 97 97 97 99 92 94 100 99 95 94 95 94 95 95 96 99 100 100 99 98 97 99 99 99 100 100 100 98 97
89 86 89 91 93 92 97 95 95 98 99 99 98 98 99 98 98 99 100 100 99 99 97 96 95 94 94 94 93 96 97 97 98 97 96 97 97 98 97 98 98 98 98

GFSMA_sfc_rhum_078.txt.gz
RH
96 95 97 97 95 93 86 88 81 82 82 78 82 80 80 85 87 86 75 79 80 74 68 70 69 64 64 65 67 68 68 68 67 67 67 68 68 67 68 67 66 65 64
96 96 97 97 97 92 85 79 75 76 76 78 82 78 80 86 87 87 85 76 80 75 70 65 64 65 66 67 68 68 68 68 67 67 68 68 67 66 67 67 66 64 62
95 92 94 96 96 87 82 80 78 76 77 75 79 79 82 84 87 88 89 88 82 80 77 72 68 65 65 67 68 68 68 68 67 67 66 65 64 63 64 65 64 61 59
93 94 94 95 93 86 78 74 75 79 80 83 85 83 81 83 83 87 88 89 88 81 80 78 75 72 68 67 68 67 66 66 65 65 65 65 64 63 62 62 62 60 58
87 94 95 95 90 83 79 74 77 76 81 82 84 85 90 86 83 80 87 89 90 88 87 82 80 80 77 71 68 67 66 65 64 64 65 65 64 64 62 61 61 61 60
91 98 96 95 89 80 83 76 76 86 86 84 74 87 94 91 87 87 84 82 87 86 87 88 86 84 83 78 72 69 67 67 66 64 64 64 64 64 64 63 62 61 61
92 96 94 91 86 82 78 76 77 83 94 90 91 94 95 94 91 91 89 86 87 86 87 87 88 87 83 85 79 71 68 66 66 67 68 68 67 66 66 66 65 64 63
95 93 89 86 77 78 84 81 71 84 90 84 92 93 96 92 93 89 89 86 87 82 83 84 86 86 87 85 84 81 74 71 72 71 71 74 76 74 70 69 68 68 67
95 94 89 84 72 73 78 77 75 77 84 87 79 86 96 96 95 93 94 93 89 88 83 83 84 84 86 86 85 85 89 87 82 78 78 78 78 78 80 77 74 72 71
96 91 88 82 73 74 80 78 74 70 78 80 82 74 75 81 94 93 85 91 88 88 86 83 81 80 81 84 86 86 89 91 88 84 84 83 82 81 80 81 81 81 79
94 92 92 85 82 83 85 86 90 84 80 79 81 81 79 85 84 90 92 89 90 87 82 83 83 83 81 80 82 85 91 91 91 88 85 83 83 84 85 83 82 82 83
98 93 93 94 94 92 91 91 91 86 86 84 74 80 83 85 83 86 86 85 83 84 80 82 86 84 83 82 81 84 90 92 91 89 88 86 84 83 82 84 85 83 83
98 98 94 95 91 88 94 94 93 90 90 89 88 86 84 82 84 81 81 85 78 78 82 82 81 82 82 85 83 89 88 93 94 91 89 88 87 86 85 84 83 84 84
96 98 95 94 89 96 96 94 95 97 96 97 95 92 89 85 87 88 83 87 92 92 91 76 83 76 76 78 81 88 84 93 94 94 93 91 90 90 89 88 87 85 83
91 95 96 98 97 93 92 94 95 95 97 96 96 97 96 93 94 90 89 84 72 84 89 86 85 82 76 73 73 74 77 80 90 93 93 92 91 90 90 90 89 88 87
90 93 90 91 95 94 92 92 90 92 96 95 94 94 93 90 90 90 85 83 86 69 70 71 81 82 86 81 78 75 72 78 82 84 86 88 88 88 88 88 88 88 88
89 89 86 86 91 91 91 94 92 91 94 92 92 93 90 84 84 84 86 83 84 83 77 67 65 74 90 86 79 78 78 74 72 84 85 84 84 85 85 86 87 87 86
90 87 88 86 86 87 88 88 90 85 89 89 87 89 88 81 86 81 85 84 85 85 84 76 64 66 85 80 80 78 75 74 77 77 86 86 85 86 86 87 87 87 87
95 94 91 92 90 86 86 86 84 84 82 85 84 84 85 83 83 82 83 84 85 82 79 79 77 70 74 81 88 88 84 82 79 83 90 90 91 91 92 92 92 92 92
90 89 91 89 88 87 82 82 84 84 81 80 83 81 79 82 81 79 80 83 82 84 85 88 88 85 81 78 87 87 88 90 90 81 86 88 86 90 93 93 94 94 94
92 89 89 85 82 81 79 82 80 82 85 85 84 82 82 82 85 81 73 78 82 87 87 87 87 85 84 85 87 80 86 84 82 83 86 89 93 92 92 97 93 96 96
90 87 89 86 85 80 88 92 87 81 80 81 83 81 82 94 92 93 93 88 76 79 86 87 82 84 85 83 80 83 85 89 93 81 89 91 99 96 97 98 98 99 99
92 94 91 88 88 88 96 98 96 82 78 79 80 80 80 78 91 84 91 96 95 92 89 79 85 88 88 86 88 90 89 90 90 95 99 100 98 99 98 97 98 98 97
92 93 91 93 92 86 96 95 96 93 90 83 83 86 91 91 89 92 90 89 90 93 97 96 94 96 98 98 98 98 99 100 100 96 97 100 99 99 98 98 95 94 96
88 86 88 90 91 91 96 96 96 94 97 97 92 92 93 94 96 96 98 99 100 98 96 93 94 94 94 93 94 100 100 99 100 98 96 99 99 98 98 98 99 100 100
86 85 89 90 92 91 93 94 94 97 96 96 95 96 99 97 97 96 98 98 96 98 97 97 96 94 95 95 93 96 96 97 98 97 97 98 98 98 97 98 97 97 96

GFSMA_sfc_rhum_084.txt.gz
RH
62 56 56 66 86 97 94 94 78 68 65 56 50 49 47 43 42 35 42 82 80 73 60 59 66 71 71 69 66 66 67 67 66 67 68 68 67 67 67 68 68 67 66
66 64 65 85 86 95 93 90 79 68 58 49 50 49 47 44 44 41 37 58 79 75 73 67 68 68 63 63 64 66 65 66 66 67 68 69 68 68 69 68 68 67 65
77 73 73 82 88 85 97 92 76 65 49 45 50 48 45 45 42 42 38 50 56 84 80 76 73 68 63 64 67 67 67 68 67 67 68 69 69 69 70 69 68 66 65
86 88 89 88 83 90 91 94 74 54 51 48 52 46 43 42 45 46 41 46 51 50 77 83 78 72 69 63 65 66 67 68 68 67 68 70 69 69 70 69 68 66 65
84 89 84 87 86 90 83 94 79 53 52 49 47 46 44 44 47 41 42 44 46 51 45 79 79 78 75 69 66 65 65 67 68 68 68 69 69 66 68 68 68 66 64
87 89 92 92 90 88 90 93 77 62 50 49 42 48 47 48 49 51 49 40 41 46 42 52 55 56 81 77 72 65 64 66 66 67 68 67 67 68 67 67 66 67 66
91 91 95 94 94 90 88 89 72 65 60 54 52 63 57 57 59 54 56 47 43 45 46 42 43 40 53 80 78 69 66 64 66 66 67 68 69 70 69 68 68 67 66
81 92 97 96 94 92 90 91 77 71 62 55 56 59 80 67 63 60 57 54 50 44 47 50 46 44 42 47 62 79 72 67 66 68 68 72 74 75 73 71 70 69 69
90 91 93 98 95 93 92 92 84 69 65 56 53 52 68 60 62 60 60 59 56 52 45 46 49 47 48 45 56 69 85 84 78 75 75 76 77 77 78 77 77 75 73
94 95 94 94 97 94 93 90 80 65 58 62 55 48 44 38 52 64 52 55 54 56 54 45 46 49 51 50 59 67 83 87 86 83 82 81 81 79 80 80 80 79 79
94 95 96 96 96 96 93 88 80 69 61 60 56 56 55 49 48 43 50 53 52 49 48 51 48 49 49 49 49 59 84 90 89 85 84 84 85 85 84 84 83 83 82
93 94 95 96 96 95 94 90 74 70 67 62 59 60 57 61 53 49 47 50 52 51 48 48 56 52 48 48 55 74 87 89 91 89 86 84 83 82 82 84 85 86 86
98 96 94 96 96 95 92 89 80 74 72 69 69 62 57 56 54 52 51 46 50 51 56 51 55 54 52 53 56 77 83 91 91 89 88 86 86 85 84 83 82 82 83
93 94 95 91 92 93 93 90 87 80 75 74 73 70 67 58 58 55 51 50 53 50 44 55 53 57 53 52 58 80 65 90 92 92 93 91 90 89 88 87 86 85 84
80 94 90 92 92 91 91 90 90 88 83 79 72 71 66 70 63 62 71 69 52 67 59 57 60 60 56 52 58 61 64 74 91 92 92 92 91 90 91 90 89 88 88
81 86 95 93 93 90 88 86 90 88 87 88 87 85 72 68 65 75 63 80 86 87 86 58 60 55 56 52 64 67 68 74 86 92 93 93 94 93 92 92 91 91 90
77 81 94 95 94 90 88 83 79 80 85 89 89 88 87 84 88 88 84 92 94 93 93 81 70 69 68 75 65 60 68 70 66 85 86 88 88 89 90 90 91 91 92
70 72 86 92 92 90 88 83 80 73 71 73 80 91 89 91 94 93 94 93 93 92 94 94 82 78 80 74 69 67 59 51 52 59 85 86 86 87 88 88 89 90 90
70 71 74 81 89 89 87 86 78 76 74 79 74 76 73 82 85 84 88 92 90 86 89 94 89 77 72 68 66 60 59 59 48 61 77 82 86 88 87 87 87 88 88
78 73 76 77 80 82 87 88 85 86 82 80 83 81 79 79 84 83 89 89 90 88 85 87 81 68 66 60 59 63 62 56 55 47 60 71 77 82 90 86 86 88 89
69 66 70 77 78 77 77 88 79 84 86 87 85 79 81 83 89 86 80 82 79 80 82 81 81 77 70 68 73 68 74 70 69 69 66 67 66 65 79 94 91 96 98
89 90 89 90 94 76 96 96 90 82 80 80 82 80 78 93 93 97 95 94 90 85 87 91 88 89 85 81 78 80 81 84 91 95 94 92 94 95 93 92 95 96 96
88 90 90 88 89 88 95 95 96 86 90 94 92 91 85 83 91 86 96 98 95 97 98 96 98 98 97 96 97 96 97 99 99 97 96 99 96 97 96 95 96 93 94
88 89 88 87 87 86 94 96 98 89 90 91 91 92 92 90 90 94 92 95 96 95 96 90 96 98 97 97 98 96 99 100 100 99 97 100 98 97 94 96 94 95 95
86 86 85 85 86 89 91 92 86 86 87 89 88 90 89 90 94 95 95 95 96 97 94 92 93 93 93 91 90 90 96 100 100 97 96 98 98 97 97 97 100 97 97
81 81 84 84 84 83 87 87 82 83 89 90 90 90 88 88 87 87 89 91 97 98 93 93 93 90 87 88 84 94 93 93 95 95 93 97 96 99 98 92 91 90 90